Location: Oak Glen
(34.0495°N, 116.9470°E)
Time: 09:24:30
(UTC-07:00)

Tiangong 1 - Pass Details

Date: 10 October 2017
Orbit: 293 x 320 km, 42.8° (Epoch: 19 October)

Event Time Altitude Azimuth Distance (km) Brightness Sun altitude
Rises 04:18:23 0° 302° (WNW) 2,027 5.8 -20.2°
Reaches altitude 10° 04:21:05 10° 333° (NNW) 1,191 3.9 -20.7°
Enters shadow 04:21:39 12° 345° (NNW) 1,091 3.6 -20.9°
